• In Portugal
  • List of Countries
  • For 7 days
  • Water Temperature
  • Satellite Maps
  • Weather Map
  • Weather Widgets
  • user-avatar
    Login

    Hourly Weather Hampi

    Today, 22 September, Friday

    Time Temperature Precipitation Wind Pressure Humidity
    00:00 +25°C° 0 mm 4 mps 713 mmHg 83%
    01:00 +25°C° 0 mm 4 mps 713 mmHg 84%
    02:00 +23°C° 0 mm 4 mps 713 mmHg 85%
    03:00 +23°C° 0 mm 4 mps 713 mmHg 86%
    04:00 +24°C° 0 mm 3 mps 713 mmHg 88%
    05:00 +24°C° 0 mm 3 mps 713 mmHg 89%
    06:00 +23°C° 0 mm 4 mps 713 mmHg 85%
    07:00 +25°C° 0 mm 4 mps 714 mmHg 81%
    08:00 +26°C° 0 mm 4 mps 714 mmHg 78%
    09:00 +28°C° 0 mm 4 mps 714 mmHg 70%
    10:00 +29°C° 0 mm 5 mps 714 mmHg 61%
    11:00 +32°C° 0 mm 5 mps 714 mmHg 53%
    12:00 +33°C° 0 mm 5 mps 713 mmHg 50%
    13:00 +34°C° 0 mm 5 mps 713 mmHg 47%
    14:00 +34°C° 0 mm 5 mps 712 mmHg 43%
    15:00 +34°C° 0 mm 5 mps 712 mmHg 45%
    16:00 +33°C° 0 mm 5 mps 712 mmHg 48%
    17:00 +33°C° 0 mm 5 mps 712 mmHg 50%
    18:00 +32°C° 0 mm 5 mps 712 mmHg 56%
    19:00 +29°C° 0 mm 5 mps 713 mmHg 62%
    20:00 +28°C° 0 mm 6 mps 713 mmHg 68%
    21:00 +27°C° 0 mm 5 mps 714 mmHg 72%
    22:00 +27°C° 0 mm 5 mps 714 mmHg 75%
    23:00 +26°C° 0 mm 5 mps 714 mmHg 79%

    Tomorrow, 23 September, Saturday

    Time Temperature Precipitation Wind Pressure Humidity
    00:00 +26°C° 0 mm 4 mps 714 mmHg 81%
    01:00 +25°C° 0 mm 4 mps 713 mmHg 82%
    02:00 +25°C° 0 mm 4 mps 713 mmHg 84%
    03:00 +24°C° 0 mm 3 mps 713 mmHg 85%
    04:00 +24°C° 0 mm 3 mps 713 mmHg 86%
    05:00 +24°C° 0 mm 3 mps 713 mmHg 88%
    06:00 +25°C° 0 mm 3 mps 714 mmHg 83%
    07:00 +26°C° 0 mm 3 mps 715 mmHg 77%
    08:00 +27°C° 0 mm 4 mps 715 mmHg 72%
    09:00 +28°C° 0 mm 4 mps 715 mmHg 66%
    10:00 +30°C° 0 mm 3 mps 715 mmHg 59%
    11:00 +31°C° 0 mm 3 mps 715 mmHg 53%
    12:00 +33°C° 0 mm 3 mps 714 mmHg 50%
    13:00 +34°C° 0 mm 3 mps 714 mmHg 47%
    14:00 +35°C° 0 mm 3 mps 713 mmHg 44%
    15:00 +34°C° 0 mm 3 mps 713 mmHg 45%
    16:00 +34°C° 0 mm 3 mps 713 mmHg 46%
    17:00 +34°C° 0 mm 3 mps 712 mmHg 47%
    18:00 +33°C° 0 mm 3 mps 713 mmHg 51%
    19:00 +31°C° 0 mm 3 mps 714 mmHg 56%
    20:00 +29°C° 0 mm 4 mps 714 mmHg 61%
    21:00 +29°C° 0.1 mm 4 mps 714 mmHg 67%
    22:00 +28°C° 0.1 mm 4 mps 714 mmHg 73%
    23:00 +27°C° 0.1 mm 5 mps 715 mmHg 79%

    Day after tomorrow, 24 September, Sunday

    Time Temperature Precipitation Wind Pressure Humidity
    00:00 +26°C° 0.1 mm 4 mps 714 mmHg 81%
    01:00 +26°C° 0.1 mm 4 mps 714 mmHg 83%
    02:00 +26°C° 0.1 mm 4 mps 713 mmHg 85%
    03:00 +25°C° 0 mm 3 mps 713 mmHg 85%
    04:00 +25°C° 0 mm 3 mps 713 mmHg 86%
    05:00 +25°C° 0 mm 3 mps 713 mmHg 86%
    06:00 +26°C° 0 mm 3 mps 714 mmHg 83%
    07:00 +27°C° 0 mm 3 mps 714 mmHg 79%
    08:00 +27°C° 0 mm 3 mps 715 mmHg 76%
    09:00 +29°C° 0 mm 3 mps 715 mmHg 69%
    10:00 +30°C° 0 mm 3 mps 715 mmHg 62%
    11:00 +33°C° 0 mm 3 mps 715 mmHg 55%
    12:00 +34°C° 0 mm 3 mps 714 mmHg 52%
    13:00 +34°C° 0 mm 3 mps 713 mmHg 49%
    14:00 +35°C° 0 mm 3 mps 712 mmHg 46%
    15:00 +34°C° 0 mm 3 mps 712 mmHg 48%
    16:00 +34°C° 0 mm 3 mps 712 mmHg 51%
    17:00 +33°C° 0 mm 3 mps 712 mmHg 54%
    18:00 +32°C° 0.8 mm 4 mps 713 mmHg 59%
    19:00 +30°C° 0.8 mm 4 mps 714 mmHg 65%
    20:00 +28°C° 0.8 mm 5 mps 714 mmHg 71%
    21:00 +28°C° 0.8 mm 5 mps 714 mmHg 75%
    22:00 +27°C° 0.8 mm 5 mps 714 mmHg 78%
    23:00 +27°C° 0.8 mm 5 mps 714 mmHg 82%

    25 September, Monday

    Time Temperature Precipitation Wind Pressure Humidity
    00:00 +26°C° 0.2 mm 4 mps 714 mmHg 84%
    01:00 +26°C° 0.2 mm 4 mps 713 mmHg 85%
    02:00 +26°C° 0.2 mm 4 mps 712 mmHg 86%
    03:00 +26°C° 0 mm 4 mps 713 mmHg 86%
    04:00 +26°C° 0 mm 3 mps 713 mmHg 87%
    05:00 +25°C° 0 mm 3 mps 713 mmHg 87%
    06:00 +26°C° 0 mm 3 mps 713 mmHg 85%
    07:00 +26°C° 0 mm 3 mps 714 mmHg 83%
    08:00 +27°C° 0 mm 3 mps 714 mmHg 81%
    09:00 +28°C° 0.2 mm 3 mps 714 mmHg 75%
    10:00 +29°C° 0.2 mm 3 mps 714 mmHg 70%
    11:00 +30°C° 0.2 mm 3 mps 714 mmHg 64%
    12:00 +30°C° 1.9 mm 3 mps 713 mmHg 64%
    13:00 +30°C° 1.9 mm 3 mps 712 mmHg 64%
    14:00 +30°C° 1.9 mm 3 mps 711 mmHg 64%
    15:00 +30°C° 3.2 mm 2 mps 711 mmHg 68%
    16:00 +29°C° 3.2 mm 2 mps 711 mmHg 72%
    17:00 +28°C° 3.2 mm 2 mps 711 mmHg 77%
    18:00 +28°C° 1.3 mm 2 mps 712 mmHg 79%
    19:00 +27°C° 1.3 mm 3 mps 713 mmHg 81%
    20:00 +26°C° 1.3 mm 4 mps 713 mmHg 83%
    21:00 +26°C° 0.6 mm 4 mps 713 mmHg 83%
    22:00 +26°C° 0.6 mm 4 mps 713 mmHg 84%
    23:00 +26°C° 0.6 mm 4 mps 713 mmHg 85%

    26 September, Tuesday

    Time Temperature Precipitation Wind Pressure Humidity
    00:00 +25°C° 0.2 mm 4 mps 713 mmHg 86%
    01:00 +25°C° 0.2 mm 4 mps 712 mmHg 88%
    02:00 +25°C° 0.2 mm 3 mps 712 mmHg 89%
    03:00 +25°C° 0 mm 3 mps 712 mmHg 90%
    04:00 +25°C° 0 mm 3 mps 712 mmHg 90%
    05:00 +25°C° 0 mm 2 mps 712 mmHg 91%
    06:00 +25°C° 0 mm 3 mps 712 mmHg 87%
    07:00 +26°C° 0 mm 3 mps 713 mmHg 83%
    08:00 +27°C° 0 mm 3 mps 714 mmHg 79%
    09:00 +28°C° 0.7 mm 3 mps 714 mmHg 73%
    10:00 +30°C° 0.7 mm 3 mps 713 mmHg 67%
    11:00 +31°C° 0.7 mm 3 mps 713 mmHg 61%
    12:00 +31°C° 1.8 mm 3 mps 713 mmHg 60%
    13:00 +33°C° 1.8 mm 3 mps 712 mmHg 58%
    14:00 +33°C° 1.8 mm 3 mps 711 mmHg 57%
    15:00 +31°C° 2.2 mm 3 mps 711 mmHg 61%
    16:00 +30°C° 2.2 mm 3 mps 711 mmHg 66%
    17:00 +30°C° 2.2 mm 2 mps 712 mmHg 70%
    18:00 +29°C° 1.4 mm 3 mps 712 mmHg 73%
    19:00 +28°C° 1.4 mm 3 mps 713 mmHg 76%
    20:00 +27°C° 1.4 mm 4 mps 713 mmHg 79%
    21:00 +27°C° 0.2 mm 4 mps 713 mmHg 81%
    22:00 +26°C° 0.2 mm 4 mps 713 mmHg 83%
    23:00 +26°C° 0.2 mm 4 mps 713 mmHg 84%

    27 September, Wednesday

    Time Temperature Precipitation Wind Pressure Humidity
    00:00 +26°C° 0.3 mm 4 mps 713 mmHg 85%
    01:00 +25°C° 0.3 mm 3 mps 712 mmHg 86%
    02:00 +25°C° 0.3 mm 3 mps 712 mmHg 87%
    03:00 +25°C° 0.3 mm 3 mps 712 mmHg 88%
    04:00 +25°C° 0.3 mm 3 mps 712 mmHg 88%
    05:00 +25°C° 0.3 mm 3 mps 712 mmHg 88%
    06:00 +25°C° 0.2 mm 3 mps 713 mmHg 86%
    07:00 +26°C° 0.2 mm 3 mps 713 mmHg 83%
    08:00 +27°C° 0.2 mm 3 mps 714 mmHg 80%
    09:00 +28°C° 0.7 mm 3 mps 714 mmHg 75%
    10:00 +29°C° 0.7 mm 3 mps 713 mmHg 71%
    11:00 +30°C° 0.7 mm 3 mps 713 mmHg 66%
    12:00 +30°C° 1.5 mm 3 mps 713 mmHg 64%
    13:00 +31°C° 1.5 mm 3 mps 712 mmHg 63%
    14:00 +31°C° 1.5 mm 3 mps 711 mmHg 62%
    15:00 +30°C° 1.2 mm 3 mps 712 mmHg 66%
    16:00 +29°C° 1.2 mm 3 mps 712 mmHg 69%
    17:00 +29°C° 1.2 mm 2 mps 712 mmHg 72%
    18:00 +28°C° 0.2 mm 3 mps 712 mmHg 75%
    19:00 +27°C° 0.2 mm 3 mps 713 mmHg 78%
    20:00 +27°C° 0.2 mm 4 mps 713 mmHg 80%
    21:00 +26°C° 0.2 mm 4 mps 713 mmHg 81%
    22:00 +26°C° 0.2 mm 4 mps 713 mmHg 83%
    23:00 +26°C° 0.2 mm 4 mps 713 mmHg 84%
    Show more